"Pseudo-MPEC" for P10OVOA

Created 2019 Jun 20 19:07:21 UT using Find_Orb

Click here for an explanation of pseudo-MPECs

 
 Astrometry: 
     P10OVOA  C2019 06 09`oxIdq/AJPWmJbvUF[_pnBD(:GxtvAstrometry^DN..yq)#G:J'F51
     P10OVOA  C2019 06 09dhjax6v]`jY+rsRJH(clVK/v]2Dx\KbKo##`y`Fj@+m7A;?^aO/;F51
     P10OVOA  C2019 06 09^+yJ)w-/_2Xc5O?,IJ#qxf5\Neki#PhN4e5C%GUh6redacted;t*F51
     P10OVOA  C2019 06 10emkiqH`3FLI(hMDEW2MkRbhWcDySr]??N.6PnJvtMXuo_click?:F51
     P10OVOA  C2019 06 10=+hb]*Q:HOm!!Qt@Y\0here0PZfor`%a?VXsKuX9^wi0yr$!MUuGF51
     P10OVOA  C2019 06 10h2Wxl9AS2udjn5fM($C%GS%?1Zl@/m/AJa^T%Jfexplanation!4F51

Station data:
(F51) Pan-STARRS 1, Haleakala  (N20.707235 W156.255910)  US/Hawaii.
   Observers N. Primak, A. Schultz, S. Watters, J. Thiel, T. Goggia. Measurer
   PS1 Science Consortium. 1.8-m Ritchey-Chrétien + CCD.

Orbital elements:  P10OVOA
   Perihelion 2019 May 4.217254 +/- 34.6 TT =  5:12:50 (JD 2458607.717254)
Epoch 2019 Jun 10.0 TT = JDT 2458644.5   Earth MOID: 0.1379   Ma: 0.0345
M  24.76344970 +/- 23               (J2000 ecliptic)          AutoNEOCP
n   0.67323549 +/- 0.0144           Peri.   97.61260 +/- 42
a   1.28931206 +/- 0.0184           Node   128.52268 +/- 12
e   0.1271073 +/- 0.0121            Incl.    4.20283 +/- 1.0
P   1.46/534.72d           H 25.5   G  0.15   U  9.9  
q 1.12543101 +/- 0.0231    Q 1.45319311 +/- 0.0251
From 6 observations 2019 June 9-10 (25.9 hr); mean residual 0".11
Residuals in arcseconds: 
190609 F51  .01+  .11+    190609 F51  .06-  .18-    190610 F51  .15+  .04+    
190609 F51  .05+  .06+    190610 F51  .16-  .14+    190610 F51  .00   .17-    

Ephemerides (geocentric):
Date (UTC) HH   RA              Dec         delta   r     elong  mag " sig PA
---- -- -- --  -------------   -----------  ------ ------ -----  --- ---- ---
2019 06 20 19  17 01 59.071   -01 20 03.60  .15435 1.1573 154.4 22.8  120 175
2019 06 20 20  17 01 59.219   -01 21 24.61  .15441 1.1574 154.4 22.8  121 175
2019 06 20 21  17 01 59.370   -01 22 45.65  .15446 1.1574 154.4 22.8  122 175
2019 06 20 22  17 01 59.524   -01 24 06.70  .15452 1.1575 154.4 22.8  123 175
2019 06 20 23  17 01 59.680   -01 25 27.77  .15457 1.1575 154.4 22.8  124 175
2019 06 21 00  17 01 59.839   -01 26 48.87  .15463 1.1576 154.4 22.8  125 175
2019 06 21 01  17 02 00.001   -01 28 09.98  .15469 1.1576 154.4 22.8  126 175
2019 06 21 02  17 02 00.166   -01 29 31.12  .15474 1.1577 154.4 22.8  126 175
2019 06 21 03  17 02 00.333   -01 30 52.27  .15480 1.1577 154.4 22.8  127 175
2019 06 21 04  17 02 00.504   -01 32 13.45  .15486 1.1578 154.4 22.8  128 175
2019 06 21 05  17 02 00.677   -01 33 34.64  .15491 1.1578 154.4 22.8  129 175
2019 06 21 06  17 02 00.852   -01 34 55.85  .15497 1.1579 154.4 22.8  130 175
2019 06 21 07  17 02 01.031   -01 36 17.09  .15503 1.1579 154.4 22.8  131 175
2019 06 21 08  17 02 01.213   -01 37 38.34  .15508 1.1580 154.4 22.8  132 175
2019 06 21 09  17 02 01.397   -01 38 59.61  .15514 1.1581 154.4 22.8  133 175
2019 06 21 10  17 02 01.584   -01 40 20.90  .15520 1.1581 154.4 22.8  134 175
2019 06 21 11  17 02 01.774   -01 41 42.21  .15525 1.1582 154.4 22.8  135 175
2019 06 21 12  17 02 01.967   -01 43 03.54  .15531 1.1582 154.4 22.8  136 175
2019 06 21 13  17 02 02.162   -01 44 24.88  .15537 1.1583 154.4 22.8  137 175
2019 06 21 14  17 02 02.361   -01 45 46.25  .15543 1.1583 154.4 22.8  138 175
2019 06 21 15  17 02 02.562   -01 47 07.63  .15549 1.1584 154.4 22.8  138 175
2019 06 21 16  17 02 02.766   -01 48 29.02  .15554 1.1584 154.4 22.8  139 175
2019 06 21 17  17 02 02.974   -01 49 50.44  .15560 1.1585 154.4 22.8  140 175
2019 06 21 18  17 02 03.183   -01 51 11.87  .15566 1.1585 154.4 22.8  141 175
2019 06 21 19  17 02 03.396   -01 52 33.32  .15572 1.1586 154.4 22.8  142 175
2019 06 21 20  17 02 03.612   -01 53 54.79  .15578 1.1586 154.4 22.8  143 175
2019 06 21 21  17 02 03.831   -01 55 16.27  .15584 1.1587 154.3 22.8  144 175
2019 06 21 22  17 02 04.052   -01 56 37.77  .15589 1.1588 154.3 22.8  145 175
2019 06 21 23  17 02 04.276   -01 57 59.29  .15595 1.1588 154.3 22.8  146 175
2019 06 22 00  17 02 04.504   -01 59 20.82  .15601 1.1589 154.3 22.8  147 175
2019 06 22 01  17 02 04.734   -02 00 42.37  .15607 1.1589 154.3 22.8  148 175
2019 06 22 02  17 02 04.967   -02 02 03.93  .15613 1.1590 154.3 22.8  149 175
2019 06 22 03  17 02 05.203   -02 03 25.51  .15619 1.1590 154.3 22.8  150 175
2019 06 22 04  17 02 05.442   -02 04 47.11  .15625 1.1591 154.3 22.8  151 175
2019 06 22 05  17 02 05.684   -02 06 08.72  .15631 1.1591 154.3 22.9  152 175
2019 06 22 06  17 02 05.929   -02 07 30.34  .15637 1.1592 154.3 22.9  153 175
2019 06 22 07  17 02 06.177   -02 08 51.98  .15643 1.1592 154.3 22.9  154 175
2019 06 22 08  17 02 06.428   -02 10 13.64  .15649 1.1593 154.3 22.9  155 175
2019 06 22 09  17 02 06.682   -02 11 35.31  .15655 1.1593 154.3 22.9  156 175
2019 06 22 10  17 02 06.938   -02 12 56.99  .15661 1.1594 154.3 22.9  157 175
2019 06 22 11  17 02 07.198   -02 14 18.68  .15667 1.1595 154.3 22.9  158 175
2019 06 22 12  17 02 07.461   -02 15 40.40  .15673 1.1595 154.3 22.9  159 175
2019 06 22 13  17 02 07.726   -02 17 02.12  .15679 1.1596 154.3 22.9  160 175
2019 06 22 14  17 02 07.995   -02 18 23.86  .15685 1.1596 154.3 22.9  161 175
2019 06 22 15  17 02 08.267   -02 19 45.61  .15691 1.1597 154.3 22.9  162 175
2019 06 22 16  17 02 08.542   -02 21 07.37  .15697 1.1597 154.3 22.9  163 175
2019 06 22 17  17 02 08.819   -02 22 29.15  .15703 1.1598 154.3 22.9  164 175
2019 06 22 18  17 02 09.100   -02 23 50.94  .15709 1.1598 154.3 22.9  165 175